STARLINK-34779

Satellite information

Favourite Embed

Satellite Type and Status

PAYLOADIN ORBIT

Key statistics

Satellite STARLINK-34779 at a glance.

Uptime

30

Days in orbit

Revolutions

≈ 15.4

Per day

Orbit

SSO

Sun Synchronous Orbit

Inclination

97.6

Latest

Satellite identification and parameters

Extended collection of information and parameters for STARLINK-34779.

Object identification

Identified? True

Debris? False

Object name: STARLINK-34779

International designator: 2025-165C

Object number (NORAD): 65058

Object ID (CCSDS): 65058

Country: UNITED STATES OF AMERICA (US)

Current information (Y/N): Y

RCS size: LARGE

Orbital parameters

Period: 93.546 minutes

Inclination: 97.6007 deg

SMA: 6826.176 km

Apoapsis: 448.261 km

Periapsis: 447.822 km

RAAN: 315.0832 deg

Eccentricy: 0.00003216

Argument of periapsis: 267.3635 deg

Mean anomaly: 92.7573 deg

Mean motion: 15.39346933 rev/day

Mean motion (dot): 0.0005504 rev/day2

B* drag term: 0.0014031716 1/REarth

Two-line elements (TLE)

Creation date: Aug. 30, 2025, 3:38 a.m.

Reference frame: TEME

Reference center: EARTH

Epoch: Aug. 29, 2025, 10:18 p.m. UTC

TLE line 0: 0 STARLINK-34779

TLE line 1: 1 65058U 25165C 25241.92983556 .00055040 00000-0 14032-2 0 9990

TLE line 2: 2 65058 97.6007 315.0832 0000322 267.3635 92.7573 15.39346933 5730

Live tracking on map

Real-time ground track for satellite STARLINK-34779.

In-orbit conjunctions

There are no conjunctions computed for STARLINK-34779, at the moment. Check back to stay up to date, as we update our databases every day.

Go to all conjunctions

Associated space launch

A batch of 19 satellites for the Starlink mega-constellation - SpaceX's project for space-based Internet communication system.

STARLINK-34779 was lifted into orbit during the mission ‘Falcon 9 Block 5 | Starlink Group 13-4’, on board a Falcon 9 space rocket.

The launch took place on July 31, 2025, 6:35 p.m. from Space Launch Complex 4E.

For more information about the launch, click the button.

Launch to space Falcon 9 Block 5 | Starlink Group 13-4
Falcon 9 Block 5 | Starlink Group 13-4

Agency: SpaceX

Status: Launch Successful

Launch date: July 31, 2025, 6:35 p.m. UTC

Rocket: Falcon 9

Launch pad: Space Launch Complex 4E

Location: Vandenberg SFB, CA, USA

...

Latest news about this satellite

News about space launch
SpaceX launches West Coast Falcon 9 rocket on Starlink 13-4 mission

Some classified satellites might have hitched a ride with 19 Starlink satellites launched by SpaceX from the company’s West Coast launch site on Thursday.

News about space launch
Launch Roundup: SpaceX to launch Crew-11 to ISS; ISRO and NASA launch new SAR satellite

With 10 launches scheduled from around the world, this week’s launch manifest is among the… The post Launch Roundup: SpaceX to launch Crew-11 to ISS; ISRO and NASA launch new SAR satellite appeared first on NASASpaceFlight.com.


Newsletter sign-up

Weekly statistics, charts and insights to help you stay on top of the space industry.